FW6209 Weather Reports


time (UTC)temp
F
wind
direction
speed
knots
gust
knots
rain 1hr
in
rain 24hr
in
rain mn
in
humidity
%
barometer
mb
20260507161612 65 15 0.0 0.0 0.00 0.00 0.00 70 1015.6
20260507161105 65 322 0.0 0.0 0.00 0.00 0.00 71 1015.6
20260507160826 65 290 0.0 0.0 0.00 0.00 0.00 72 1015.6
20260507160053 65 271 0.0 0.0 0.00 0.00 0.00 71 1015.6
20260507155548 65 18 0.0 0.0 0.00 0.00 0.00 71 1015.6
20260507155041 65 347 0.0 0.0 0.00 0.00 0.00 71 1015.6
20260507154537 64 17 0.0 0.0 0.00 0.00 0.00 72 1015.8
20260507154029 64 17 0.0 0.0 0.00 0.00 0.00 72 1015.6
20260507153524 64 323 0.0 0.0 0.00 0.00 0.00 72 1015.6
20260507153017 64 267 0.0 0.0 0.00 0.00 0.00 72 1015.6
20260507152733 64 295 0.0 0.0 0.00 0.00 0.00 71 1015.6
20260507152231 63 92 0.0 0.0 0.00 0.00 0.00 73 1015.9
20260507151500 63 284 0.0 0.0 0.00 0.00 0.00 74 1015.8
20260507150953 63 236 0.0 0.0 0.00 0.00 0.00 74 1015.8
20260507150447 63 13 0.0 0.0 0.00 0.00 0.00 75 1015.6
20260507145942 62 13 0.0 0.0 0.00 0.00 0.00 77 1015.6
20260507145435 61 349 0.0 0.0 0.00 0.00 0.00 79 1015.5
20260507144930 60 186 0.0 0.0 0.00 0.00 0.00 82 1015.4
20260507144423 60 186 0.0 0.0 0.00 0.00 0.00 83 1015.5
20260507143917 59 182 0.0 0.0 0.00 0.00 0.00 85 1015.4
20260507143411 58 175 0.0 0.0 0.00 0.00 0.00 86 1015.3
20260507142906 57 159 0.0 0.0 0.00 0.00 0.00 86 1015.3
20260507142359 57 162 0.0 0.0 0.00 0.00 0.00 86 1015.2
20260507142120 57 162 0.0 0.0 0.00 0.00 0.00 88 1015.2
20260507141347 56 173 0.0 0.0 0.00 0.00 0.00 89 1015.2
20260507140842 56 181 0.0 0.0 0.00 0.00 0.00 90 1015.2
20260507140335 55 188 0.0 0.0 0.00 0.00 0.00 90 1015.2
20260507135829 55 202 0.0 0.0 0.00 0.00 0.00 91 1015.1
20260507135323 55 173 0.0 0.0 0.00 0.00 0.00 91 1015.0
20260507135042 54 169 0.0 0.0 0.00 0.00 0.00 91 1015.0
20260507134311 54 182 0.0 0.0 0.00 0.00 0.00 91 1015.1
20260507133806 54 188 0.0 0.0 0.00 0.00 0.00 91 1015.1
20260507133259 54 178 0.0 0.0 0.00 0.00 0.00 92 1015.1
20260507132753 53 171 0.0 0.0 0.00 0.00 0.00 91 1014.9
20260507132247 53 164 0.0 0.0 0.00 0.00 0.00 91 1015.0
20260507131741 53 173 0.0 0.0 0.00 0.00 0.00 91 1015.0
20260507131236 53 187 0.0 0.0 0.00 0.00 0.00 91 1015.0
20260507130729 53 207 0.0 0.0 0.00 0.00 0.00 90 1014.9
20260507130224 53 188 0.0 0.0 0.00 0.00 0.00 90 1014.8
20260507125717 53 184 0.0 0.0 0.00 0.00 0.00 90 1014.8
20260507125211 53 184 0.0 0.0 0.00 0.00 0.00 91 1014.8
20260507124705 53 180 0.0 0.0 0.00 0.00 0.00 91 1014.7
20260507124159 53 190 0.0 0.0 0.00 0.00 0.00 91 1014.7
20260507123653 53 196 0.0 0.0 0.00 0.00 0.00 91 1014.6
20260507123147 53 188 0.0 0.0 0.00 0.00 0.00 91 1014.6
20260507122641 53 207 0.0 0.0 0.00 0.00 0.00 91 1014.6
20260507122135 53 219 0.0 0.0 0.00 0.00 0.00 91 1014.7
20260507121854 53 232 0.0 0.0 0.00 0.00 0.00 90 1014.7
20260507121123 53 232 0.0 0.0 0.00 0.00 0.00 90 1014.7
20260507120617 53 232 0.0 0.0 0.00 0.00 0.00 90 1014.6
20260507120111 53 232 0.0 0.0 0.00 0.00 0.00 89 1014.5
20260507115605 53 232 0.0 0.0 0.00 0.00 0.00 89 1014.7
20260507115059 53 232 0.0 0.0 0.00 0.00 0.00 88 1014.7
20260507114825 53 232 0.0 0.0 0.00 0.00 0.00 88 1014.6
20260507114047 53 232 0.0 0.0 0.00 0.00 0.00 88 1014.5
20260507113541 54 232 0.0 0.0 0.00 0.00 0.00 88 1014.6
20260507113035 54 232 0.0 0.0 0.00 0.00 0.00 88 1014.8
20260507112529 54 232 0.0 0.0 0.00 0.00 0.00 88 1014.7
20260507112023 53 232 0.0 0.0 0.00 0.00 0.00 88 1014.9
20260507111739 53 217 0.0 0.0 0.00 0.00 0.00 88 1014.9
20260507111011 53 217 0.0 0.0 0.00 0.00 0.00 87 1014.9
20260507110505 53 217 0.0 0.0 0.00 0.00 0.00 87 1014.8
20260507110223 53 217 0.0 0.0 0.00 0.00 0.00 88 1014.9
20260507105453 53 217 0.0 0.0 0.00 0.00 0.00 88 1015.0
20260507104947 53 217 0.0 0.0 0.00 0.00 0.00 88 1014.9
20260507104441 53 217 0.0 0.0 0.00 0.00 0.00 88 1015.0
20260507103936 53 217 0.0 0.0 0.00 0.00 0.00 89 1015.0
20260507103430 53 217 0.0 0.0 0.00 0.00 0.00 89 1015.0
20260507102923 53 217 0.0 0.0 0.00 0.00 0.00 89 1015.0
20260507102417 54 217 0.0 0.0 0.00 0.00 0.00 90 1015.0
20260507101911 54 175 0.0 0.0 0.00 0.00 0.00 90 1015.2
20260507101624 54 175 0.0 0.0 0.00 0.00 0.00 90 1015.2
20260507100859 54 175 0.0 0.0 0.00 0.00 0.00 90 1015.3
20260507100353 54 175 0.0 0.0 0.00 0.00 0.00 90 1015.1
20260507095847 54 181 0.0 0.0 0.00 0.00 0.00 90 1015.1
20260507095342 54 181 0.0 0.0 0.00 0.00 0.00 89 1015.0
20260507094835 54 175 0.0 0.0 0.00 0.00 0.00 88 1015.2
20260507094823 54 178 0.0 0.0 0.00 0.00 0.00 88 1015.3
20260507093823 54 178 0.0 0.0 0.00 0.00 0.00 87 1015.3
20260507093317 54 178 0.0 0.0 0.00 0.00 0.00 87 1015.6
20260507092812 54 178 0.0 0.0 0.00 0.00 0.00 88 1015.6
20260507092307 54 178 0.0 0.0 0.00 0.00 0.00 88 1015.6
20260507091759 54 178 0.0 0.0 0.00 0.00 0.00 87 1015.6
20260507091253 54 178 0.0 0.0 0.00 0.00 0.00 87 1015.6
20260507090747 54 175 0.0 0.0 0.00 0.00 0.00 87 1015.6
20260507090729 54 175 0.0 0.0 0.00 0.00 0.00 88 1015.6
20260507090006 54 165 0.0 0.0 0.00 0.00 0.00 88 1015.6
20260507085229 54 176 0.0 0.0 0.00 0.00 0.00 88 1015.6
20260507084724 54 166 0.0 0.0 0.00 0.00 0.00 88 1015.9
20260507084217 54 198 0.0 0.0 0.00 0.00 0.00 87 1015.9
20260507083712 55 198 0.0 0.0 0.00 0.00 0.00 87 1015.9
20260507083432 55 171 0.0 0.0 0.00 0.00 0.00 87 1015.9
20260507082659 55 171 0.0 0.0 0.00 0.00 0.00 87 1016.0
20260507082153 55 174 0.0 0.0 0.00 0.00 0.00 87 1016.0
20260507081912 55 171 0.0 0.0 0.00 0.00 0.00 87 1016.1
20260507081141 55 169 0.0 0.0 0.00 0.00 0.00 87 1016.1
20260507080859 55 183 0.0 0.0 0.00 0.00 0.00 87 1016.2
20260507080130 55 186 0.0 0.0 0.00 0.00 0.00 87 1016.3
20260507075624 55 184 0.0 0.0 0.00 0.00 0.00 87 1016.3
20260507075118 55 198 0.0 0.0 0.00 0.00 0.00 87 1016.1
20260507074611 55 173 0.0 0.0 0.00 0.00 0.00 86 1016.3
20260507074105 55 173 0.0 0.0 0.00 0.00 0.00 86 1016.4
20260507073600 55 173 0.0 0.0 0.00 0.00 0.00 86 1016.4
20260507073053 55 173 0.0 0.0 0.00 0.00 0.00 86 1016.4
20260507073039 55 173 0.0 0.0 0.00 0.00 0.00 86 1016.4
20260507072042 55 170 0.0 0.0 0.00 0.00 0.00 86 1016.5
20260507071535 55 170 0.0 1.7 0.00 0.00 0.00 86 1016.4
20260507071514 55 184 0.0 1.7 0.00 0.00 0.00 86 1016.3
20260507070523 55 176 0.0 1.7 0.00 0.00 0.00 86 1016.4
20260507070015 55 184 0.0 1.7 0.00 0.00 0.00 85 1016.4
20260507065508 55 184 0.0 2.6 0.00 0.00 0.00 85 1016.4
20260507065002 55 171 0.0 2.6 0.00 0.00 0.00 84 1016.4
20260507064456 56 165 0.0 0.0 0.00 0.00 0.00 84 1016.3
20260507063950 56 153 0.0 0.0 0.00 0.00 0.00 84 1016.3
20260507063445 56 132 0.0 0.0 0.00 0.00 0.00 84 1016.3
20260507062938 56 189 0.0 0.0 0.00 0.00 0.00 84 1016.3
20260507062432 56 189 0.0 0.0 0.00 0.00 0.00 84 1016.4
20260507061926 56 189 0.0 0.0 0.00 0.00 0.00 83 1016.3
20260507061420 56 189 0.0 0.0 0.00 0.00 0.00 83 1016.4
20260507060914 56 189 0.0 0.0 0.00 0.00 0.00 83 1016.4
20260507060408 56 189 0.0 0.0 0.00 0.00 0.00 83 1016.4
20260507055903 56 189 0.0 0.0 0.00 0.00 0.00 83 1016.5
20260507055622 56 189 0.0 0.0 0.00 0.00 0.00 83 1016.4
20260507054850 56 189 0.0 0.0 0.00 0.00 0.00 83 1016.4
20260507054345 56 189 0.0 0.0 0.00 0.00 0.00 83 1016.5
20260507053838 56 189 0.0 0.0 0.00 0.00 0.00 83 1016.5
20260507053332 56 189 0.0 0.0 0.00 0.00 0.00 83 1016.4
20260507052827 56 189 0.0 0.0 0.00 0.00 0.00 83 1016.5
20260507052320 56 189 0.0 0.0 0.00 0.00 0.00 84 1016.5
20260507051814 56 189 0.0 0.0 0.00 0.00 0.00 84 1016.4
20260507051308 56 189 0.0 0.0 0.00 0.00 0.00 84 1016.5
20260507051035 56 189 0.0 0.0 0.00 0.00 0.00 84 1016.5
20260507050256 56 189 0.0 0.0 0.00 0.00 0.00 83 1016.3
20260507045750 56 189 0.0 0.0 0.00 0.00 0.00 83 1016.3
20260507045245 56 189 0.0 0.0 0.00 0.00 0.00 82 1016.3
20260507044738 56 189 0.0 0.0 0.00 0.00 0.00 82 1016.3
20260507044450 57 189 0.0 0.0 0.00 0.00 0.00 82 1016.3
20260507043726 57 189 0.0 0.0 0.00 0.00 0.00 82 1016.3
20260507043221 57 189 0.0 0.0 0.00 0.00 0.00 82 1016.3
20260507042940 57 189 0.0 0.0 0.00 0.00 0.00 82 1016.3
20260507042213 57 189 0.0 0.0 0.00 0.00 0.00 82 1016.3
20260507041702 57 189 0.0 0.0 0.00 0.00 0.00 81 1016.3
20260507041202 57 189 0.0 0.0 0.00 0.00 0.00 81 1016.2
20260507040650 57 231 0.0 0.0 0.00 0.00 0.00 80 1016.2
20260507040144 58 231 0.0 0.0 0.00 0.00 0.00 80 1016.3
20260507035905 58 231 0.0 0.0 0.00 0.00 0.00 79 1016.2
20260507035132 58 231 0.0 0.0 0.00 0.00 0.00 78 1016.1
20260507034626 58 231 0.0 0.0 0.00 0.00 0.00 78 1016.1
20260507034120 58 231 0.0 0.0 0.00 0.00 0.00 78 1016.1
20260507033614 58 231 0.0 0.0 0.00 0.00 0.00 78 1016.2
20260507033108 58 213 0.0 0.0 0.00 0.00 0.00 77 1016.1
20260507032602 59 213 0.0 0.9 0.00 0.00 0.00 77 1016.0
20260507032532 59 174 0.0 0.9 0.00 0.00 0.00 76 1015.9
20260507031550 59 174 0.0 0.9 0.00 0.00 0.00 75 1015.6
20260507031533 60 168 0.0 0.9 0.00 0.00 0.00 75 1015.5
20260507030539 60 234 0.0 0.0 0.00 0.00 0.00 74 1015.4
20260507030032 60 234 0.0 0.0 0.00 0.00 0.00 73 1015.4
20260507025526 60 234 0.0 2.6 0.00 0.00 0.00 72 1015.4
20260507025020 60 205 0.0 2.6 0.00 0.00 0.00 72 1015.4
20260507024514 61 229 0.0 2.6 0.00 0.00 0.00 71 1015.5
20260507024234 61 232 0.0 2.6 0.00 0.00 0.00 70 1015.4
20260507023503 62 240 0.0 2.6 0.00 0.00 0.00 69 1015.4
20260507022956 62 236 0.0 2.6 0.00 0.00 0.00 68 1015.4
20260507022452 62 207 0.0 2.6 0.00 0.00 0.00 68 1015.3
20260507021944 63 221 0.0 2.6 0.00 0.00 0.00 67 1015.2
20260507021440 63 219 0.0 2.6 0.00 0.00 0.00 66 1015.2
20260507020933 63 229 0.9 6.1 0.00 0.00 0.00 66 1015.3
20260507020651 64 225 0.9 6.1 0.00 0.00 0.00 65 1015.2
20260507020148 64 220 1.7 6.1 0.00 0.00 0.00 64 1015.1
20260507015414 65 222 1.7 6.1 0.00 0.00 0.00 64 1015.0
20260507015128 65 242 0.0 6.1 0.00 0.00 0.00 63 1014.9
20260507014630 65 251 0.0 6.1 0.00 0.00 0.00 63 1015.1
20260507013856 65 165 0.9 6.1 0.00 0.00 0.00 63 1015.1
20260507013351 65 227 1.7 7.0 0.00 0.00 0.00 64 1015.0
20260507013112 65 221 1.7 7.0 0.00 0.00 0.00 63 1015.1
20260507012338 65 247 1.7 7.0 0.00 0.00 0.00 62 1015.0
20260507012100 65 207 1.7 6.1 0.00 0.00 0.00 63 1014.9
20260507011326 65 227 1.7 7.0 0.00 0.00 0.00 64 1014.8
20260507010820 65 223 1.7 7.0 0.00 0.00 0.00 65 1014.9
20260507010315 65 230 2.6 8.7 0.00 0.00 0.00 65 1014.8
20260507005808 65 53 3.5 8.7 0.00 0.00 0.00 65 1014.9
20260507005305 65 240 3.5 8.7 0.00 0.00 0.00 65 1015.0
20260507004756 66 219 3.5 8.7 0.00 0.00 0.00 64 1015.0
20260507004250 67 251 3.5 8.7 0.00 0.00 0.00 63 1015.0
20260507004010 67 169 3.5 7.8 0.00 0.00 0.00 63 1015.0
20260507003239 67 202 3.5 8.7 0.00 0.00 0.00 62 1015.0
20260507002732 68 231 2.6 8.7 0.00 0.00 0.00 61 1014.9
20260507002226 68 152 1.7 7.0 0.00 0.00 0.00 61 1014.8
20260507001720 68 200 1.7 7.8 0.00 0.00 0.00 62 1014.8
20260507001214 68 229 2.6 7.8 0.00 0.00 0.00 61 1014.7
20260507000914 68 225 3.5 8.7 0.00 0.00 0.00 61 1014.5
20260507000759 68 240 2.6 7.8 0.00 0.00 0.00 62 1014.6
20260506235656 68 240 3.5 8.7 0.00 0.00 0.00 61 1014.6
20260506235150 68 246 3.5 8.7 0.00 0.00 0.00 61 1014.5
20260506234645 68 240 3.5 8.7 0.00 0.00 0.00 62 1014.5
20260506234138 69 243 1.7 8.7 0.00 0.00 0.00 61 1014.4
20260506234121 69 236 1.7 8.7 0.00 0.00 0.00 62 1014.5
20260506233126 69 133 2.6 8.7 0.00 0.00 0.00 61 1014.4
20260506232620 68 236 2.6 9.6 0.00 0.00 0.00 62 1014.5
20260506232115 69 254 1.7 9.6 0.00 0.00 0.00 62 1014.5
20260506231834 68 242 2.6 9.6 0.00 0.00 0.00 63 1014.5
20260506231102 68 271 2.6 10.4 0.00 0.00 0.00 62 1014.6
20260506230556 68 224 2.6 10.4 0.00 0.00 0.00 62 1014.7
20260506230050 68 219 3.5 10.4 0.00 0.00 0.00 63 1014.7
20260506225544 68 271 3.5 10.4 0.00 0.00 0.00 63 1014.7
20260506225521 69 242 3.5 11.3 0.00 0.00 0.00 61 1014.7
20260506224532 69 252 3.5 11.3 0.00 0.00 0.00 61 1014.8
20260506224027 69 246 3.5 10.4 0.00 0.00 0.00 61 1014.8
20260506223520 69 242 3.5 11.3 0.00 0.00 0.00 61 1014.7
20260506223237 69 224 4.3 11.3 0.00 0.00 0.00 60 1014.8
20260506222507 69 210 3.5 9.6 0.00 0.00 0.00 60 1014.9
20260506222002 69 266 3.5 9.6 0.00 0.00 0.00 61 1015.0
20260506221456 69 236 5.2 10.4 0.00 0.00 0.00 60 1014.9
20260506221212 69 312 3.5 10.4 0.00 0.00 0.00 60 1014.9
20260506220444 70 297 3.5 9.6 0.00 0.00 0.00 60 1014.9
20260506215939 70 259 3.5 10.4 0.00 0.00 0.00 59 1015.0
20260506215431 70 238 3.5 10.4 0.00 0.00 0.00 60 1015.0
20260506215152 70 271 3.5 11.3 0.00 0.00 0.00 59 1014.9
20260506214420 71 286 2.6 11.3 0.00 0.00 0.00 59 1015.0
20260506213914 70 250 2.6 10.4 0.00 0.00 0.00 58 1015.1
20260506213409 71 254 1.7 8.7 0.00 0.00 0.00 57 1015.2
20260506212902 70 294 1.7 8.7 0.00 0.00 0.00 59 1015.2
20260506212356 70 240 2.6 10.4 0.00 0.00 0.00 59 1015.2
20260506211850 69 323 3.5 10.4 0.00 0.00 0.00 59 1015.3
20260506211345 69 282 4.3 11.3 0.00 0.00 0.00 59 1015.5
20260506210840 69 259 3.5 11.3 0.00 0.00 0.00 59 1015.4
20260506210603 70 276 1.7 7.8 0.00 0.00 0.00 60 1015.4
20260506205841 69 340 1.7 7.8 0.00 0.00 0.00 60 1015.5
20260506205342 69 267 1.7 9.6 0.00 0.00 0.00 59 1015.6
20260506204842 69 275 2.6 9.6 0.00 0.00 0.00 59 1015.5
20260506204341 69 252 3.5 9.6 0.00 0.00 0.00 59 1015.5
20260506204104 69 198 3.5 9.6 0.00 0.00 0.00 61 1015.3
20260506203609 69 241 5.2 11.3 0.00 0.00 0.00 61 1015.4
20260506202842 69 227 6.1 11.3 0.00 0.00 0.00 60 1015.6
20260506202603 69 270 5.2 11.3 0.00 0.00 0.00 60 1015.8
20260506201843 69 248 4.3 11.3 0.00 0.00 0.00 59 1015.9
20260506201340 70 260 4.3 10.4 0.00 0.00 0.00 58 1015.9
20260506200838 70 251 3.5 10.4 0.00 0.00 0.00 58 1015.9
20260506200607 70 284 2.6 8.7 0.00 0.00 0.00 56 1016.0
20260506195837 70 279 1.7 7.8 0.00 0.00 0.00 53 1016.1
20260506195337 70 277 1.7 7.0 0.00 0.00 0.00 53 1016.1
20260506194836 69 280 0.9 7.0 0.00 0.00 0.00 54 1016.0
20260506194332 69 30 0.9 6.1 0.00 0.00 0.00 53 1016.2
20260506193834 70 271 0.9 5.2 0.00 0.00 0.00 51 1016.4
20260506193333 69 262 0.0 4.3 0.00 0.00 0.00 52 1016.4
20260506193058 69 9 0.0 4.3 0.00 0.00 0.00 50 1016.3
20260506192330 69 16 0.9 4.3 0.00 0.00 0.00 54 1016.5
20260506191836 68 225 0.9 3.5 0.00 0.00 0.00 52 1016.5
20260506191334 69 303 0.0 6.1 0.00 0.00 0.00 51 1016.5
20260506190829 69 0 0.0 6.1 0.00 0.00 0.00 53 1016.6
20260506190330 68 23 0.9 6.1 0.00 0.00 0.00 52 1016.7
20260506185830 68 300 0.9 6.1 0.00 0.00 0.00 52 1016.7
20260506185328 68 12 0.0 6.1 0.00 0.00 0.00 53 1016.6
20260506184826 67 250 0.0 3.5 0.00 0.00 0.00 54 1016.7
20260506184325 67 9 0.0 3.5 0.00 0.00 0.00 54 1016.8
20260506183826 67 300 0.0 4.3 0.00 0.00 0.00 55 1016.8
20260506183809 67 355 0.9 4.3 0.00 0.00 0.00 54 1016.8
20260506183052 66 0 0.9 4.3 0.00 0.00 0.00 56 1017.1
20260506182552 65 15 0.9 7.8 0.00 0.00 0.00 56 1017.1
20260506181825 65 13 0.9 7.8 0.00 0.00 0.00 56 1017.0
20260506181322 65 351 0.9 7.8 0.00 0.00 0.00 56 1017.0
20260506180824 65 211 0.9 7.8 0.00 0.00 0.00 56 1017.0
20260506180323 65 289 0.9 7.0 0.00 0.00 0.00 57 1017.1
20260506175823 66 269 0.9 6.1 0.00 0.00 0.00 57 1017.1
20260506175322 65 258 0.9 5.2 0.00 0.00 0.00 57 1017.0
20260506175052 65 285 0.9 5.2 0.00 0.00 0.00 58 1017.2
20260506174321 65 15 0.9 4.3 0.00 0.00 0.00 56 1017.3
20260506173820 65 43 0.0 3.5 0.00 0.00 0.00 57 1017.1
20260506173323 64 336 0.0 3.5 0.00 0.00 0.00 58 1017.1
20260506172816 64 0 0.9 3.5 0.00 0.00 0.00 59 1017.1
20260506172318 64 244 0.9 3.5 0.00 0.00 0.00 61 1017.1
20260506172041 64 260 0.9 3.5 0.00 0.00 0.00 61 1017.2
20260506171319 64 254 0.0 4.3 0.00 0.00 0.00 63 1017.2
20260506171038 63 303 0.0 4.3 0.00 0.00 0.00 64 1017.2
20260506170316 62 42 0.9 6.1 0.00 0.00 0.00 66 1017.2
20260506170036 62 266 0.9 6.1 0.00 0.00 0.00 66 1017.3
20260506165317 62 241 0.0 6.1 0.00 0.00 0.00 68 1017.2
20260506164823 62 277 0.0 6.1 0.00 0.00 0.00 70 1017.3
20260506164313 61 281 0.0 3.5 0.00 0.00 0.00 70 1017.2
20260506163814 61 311 0.9 3.5 0.00 0.00 0.00 69 1017.2
20260506163804 62 279 0.9 3.5 0.00 0.00 0.00 67 1017.3
20260506162815 61 9 0.9 3.5 0.00 0.00 0.00 68 1017.3
20260506162313 61 261 0.0 3.5 0.00 0.00 0.00 68 1017.2